[[{"header":{"parameterUnit":"m.s-1","parameterCategory":1,"la1":30.2991,"la2":30.254,"lo1":-89.0895,"lo2":-89.0444,"dy":0.0017,"dx":0.0017,"nx":28,"ny":28,"refTime":"2025-11-05T09:00:00:Z","depth":0,"parameterNumber":2,"parameterNumberName":"U-component_of_WINDS"},"data":[0,0,0,0,0,0,0,0,0,0,0,0,0,0,0,0,0,0,0,0,0,0,0,0,0,0,0,0,0,0,0,0,0,0,0,0,0,0,0,0,0,0,0,0,0,0,0,0,0,0,0,0,0,0,0,0,0,0,-1.4335,-1.4335,0,-1.4323,-1.4323,-1.4323,-1.4259,-1.4258,-1.4256,-1.4255,-1.4243,-1.4244,-1.4245,0,0,0,0,0,0,0,0,0,0,0,0,0,-1.4304,-1.4305,-1.4335,-1.4335,-1.4335,-1.4323,-1.4323,-1.4323,-1.4259,-1.4257,-1.4256,-1.4254,-1.4242,-1.4244,-1.4245,0,0,0,0,0,0,0,0,0,0,0,0,0,-1.4308,-1.4306,-1.4335,-1.4302,-1.4299,-1.4323,-1.4323,-1.4322,-1.426,-1.4257,-1.4255,-1.4253,-1.4242,-1.4243,-1.4245,-1.4301,0,0,-1.425,-1.4251,0,0,0,0,0,0,0,0,-1.4307,-1.4309,-1.4307,-1.4304,-1.4301,-1.429,-1.4307,-1.4315,-1.426,-1.4275,-1.4255,-1.4252,-1.426,-1.426,-1.4263,-1.43,-1.4299,-1.425,-1.4251,-1.4252,-1.4252,0,0,0,0,0,0,0,-1.4307,-1.4309,-1.433,-1.4307,-1.4303,-1.4288,-1.4286,-1.4309,-1.428,-1.4273,-1.4268,-1.4268,-1.4258,-1.4262,-1.4262,-1.4299,-1.425,-1.4252,-1.4253,-1.4253,-1.4382,-1.4384,0,0,0,0,0,0,-1.4312,-1.4309,-1.4331,-1.433,-1.4299,-1.429,-1.4288,-1.4296,-1.428,-1.4275,-1.427,-1.4265,-1.426,-1.426,-1.4262,-1.4326,-1.4252,-1.4253,-1.4254,-1.438,-1.4383,-1.4385,0,0,0,0,0,0,-1.4311,-1.4314,-1.4331,-1.4318,-1.4319,-1.4293,-1.4303,-1.4297,-1.43,-1.4277,-1.4272,-1.4278,-1.4258,-1.4259,-1.4291,-1.4325,-1.4254,-1.4256,-1.4377,-1.4381,-1.4384,-1.4455,0,0,0,0,0,0,-1.4311,-1.4314,-1.4335,-1.4319,-1.432,-1.4361,-1.4305,-1.4298,-1.4303,-1.4296,-1.4284,-1.428,-1.4256,-1.4289,-1.4293,-1.4326,-1.4257,-1.4374,-1.4379,-1.4383,-1.445,-1.4461,-1.447,0,0,0,0,0,-1.431,-1.4355,-1.4336,-1.4339,-1.4345,-1.4363,-1.4364,-1.4336,-1.4306,-1.4327,-1.4312,-1.428,-1.4321,-1.4293,-1.4297,-1.433,-1.4372,-1.4377,-1.4382,-1.4445,-1.4459,-1.447,0,0,0,0,0,0,-1.4376,-1.4353,-1.4331,-1.4373,-1.4371,-1.4352,-1.4377,-1.4351,-1.4357,-1.435,-1.4316,-1.4313,-1.4351,-1.4344,-1.4314,-1.4384,-1.4341,-1.4347,-1.4387,-1.44,-1.441,-1.4411,-1.4258,0,0,0,0,0,-1.4395,-1.4411,-1.439,-1.4429,-1.4429,-1.4404,-1.4411,-1.4389,-1.4385,-1.4384,-1.4372,-1.4369,-1.4381,-1.439,-1.44,-1.4448,-1.4445,-1.4473,-1.4484,-1.4492,-1.4498,-1.4524,-1.4537,-1.4403,-1.4403,-1.4403,0,0,-1.4435,-1.4425,-1.4437,-1.4442,-1.4438,-1.4456,-1.4403,-1.4424,-1.4437,-1.4387,-1.4417,-1.4408,-1.4403,-1.4444,-1.4461,-1.4439,-1.4535,-1.4499,-1.4506,-1.4508,-1.4531,-1.4544,-1.4555,-1.4407,-1.4406,-1.4406,0,0,-1.4518,-1.4511,-1.4543,-1.454,-1.4534,-1.4517,-1.4525,-1.4511,-1.4503,-1.4533,-1.4496,-1.4511,-1.4532,-1.453,-1.4532,-1.4616,-1.4587,-1.462,-1.4673,-1.4699,-1.471,-1.4719,-1.4749,-1.4761,-1.4626,-1.4626,-1.4626,0,-1.4569,-1.4594,-1.4563,-1.4587,-1.4591,-1.4546,-1.4579,-1.4577,-1.4575,-1.4579,-1.4554,-1.458,-1.4574,-1.4614,-1.4635,-1.4637,-1.4646,-1.4621,-1.4711,-1.472,-1.4728,-1.4756,-1.4768,-1.463,-1.463,-1.4629,-1.4629,0,-1.4657,-1.4675,-1.4702,-1.4701,-1.4708,-1.4736,-1.471,-1.472,-1.4699,-1.4685,-1.4716,-1.4707,-1.4714,-1.4722,-1.4701,-1.476,-1.4746,-1.4717,-1.4673,-1.4745,-1.4771,-1.4782,-1.4636,-1.4635,-1.4633,-1.4632,0,0,-1.478,-1.4762,-1.4773,-1.4772,-1.4763,-1.4777,-1.4803,-1.481,-1.4821,-1.4821,-1.4842,-1.4862,-1.4835,-1.4837,-1.4816,-1.4838,-1.4906,-1.4806,-1.4805,-1.4825,-1.4971,-1.4994,-1.5007,-1.4887,-1.4889,-1.489,-1.4972,0,-1.4859,-1.4903,-1.4877,-1.4925,-1.4942,-1.49,-1.4923,-1.4921,-1.4908,-1.4921,-1.4908,-1.4922,-1.4885,-1.4886,-1.4907,-1.4893,-1.4935,-1.4887,-1.4907,-1.4908,-1.491,-1.502,-1.5044,-1.5121,-1.4982,-1.4983,-1.4984,0,-1.4957,-1.4962,-1.5012,-1.5,-1.5006,-1.5028,-1.5033,-1.5046,-1.5042,-1.5031,-1.5035,-1.5008,-1.5034,-1.499,-1.5026,-1.4994,-1.5001,-1.4996,-1.4998,-1.4999,-1.4951,-1.5025,-1.5145,-1.5157,-1.5,-1.4999,-1.4998,0,-1.5043,-1.5062,-1.5094,-1.5095,-1.5082,-1.5098,-1.5093,-1.5087,-1.5094,-1.5098,-1.5103,-1.511,-1.5115,-1.5122,-1.5098,-1.5069,-1.5137,-1.5091,-1.513,-1.513,-1.5146,-1.5145,-1.527,-1.515,-1.515,-1.5149,-1.5149,0,-1.5134,-1.5167,-1.5133,-1.5153,-1.5188,-1.5158,-1.5193,-1.5184,-1.518,-1.5198,-1.5162,-1.518,-1.5147,-1.5162,-1.5144,-1.5177,-1.5179,-1.5171,-1.5166,-1.5175,-1.5176,-1.5179,-1.5173,-1.5152,-1.5152,-1.5151,-1.5151,0,-1.5235,-1.5214,-1.5247,-1.5232,-1.5229,-1.5256,-1.5243,-1.5262,-1.5247,-1.5271,-1.5274,-1.5252,-1.5267,-1.5245,-1.5258,-1.5245,-1.5291,-1.5277,-1.5292,-1.5288,-1.5328,-1.5325,-1.5459,-1.5475,-1.5345,-1.5346,-1.5347,0,-1.5295,-1.5319,-1.5307,-1.5317,-1.5314,-1.533,-1.5337,-1.5308,-1.5317,-1.5315,-1.5334,-1.5346,-1.5355,-1.5382,-1.5367,-1.5377,-1.5364,-1.541,-1.5365,-1.5373,-1.5365,-1.5364,-1.5367,-1.5419,-1.5421,-1.5422,-1.5423,0,-1.5404,-1.5392,-1.5403,-1.5411,-1.542,-1.5425,-1.5427,-1.5437,-1.5407,-1.5418,-1.5434,-1.5441,-1.5454,-1.5468,-1.5474,-1.547,-1.5442,-1.5438,-1.5447,-1.5456,-1.5464,-1.5461,-1.5318,-1.5435,-1.5434,-1.5433,-1.5432,-1.5432,-1.5486,-1.5506,-1.5501,-1.5515,-1.5514,-1.5517,-1.5534,-1.5522,-1.5534,-1.5543,-1.5525,-1.5546,-1.5542,-1.5548,-1.5547,-1.5563,-1.5543,-1.5556,-1.556,-1.5564,-1.557,-1.5462,-1.5564,-1.5563,-1.5563,-1.5563,-1.5562,0,-1.5594,-1.5589,-1.5602,-1.5606,-1.5617,-1.559,-1.5591,-1.5603,-1.5621,-1.562,-1.5629,-1.5648,-1.5661,-1.5648,-1.5658,-1.5674,-1.5662,-1.5678,-1.5676,-1.5676,-1.5587,-1.5578,-1.5687,-1.5687,-1.5687,-1.5687,-1.5687,-1.5687,-1.5651,-1.5683,-1.5672,-1.5703,-1.5698,-1.5718,-1.5721,-1.5724,-1.5723,-1.5745,-1.5756,-1.5747,-1.5742,-1.5752,-1.5763,-1.5759,-1.5765,-1.5786,-1.5777,-1.5694,-1.5682,-1.5671,-1.5662,-1.5787,-1.5787,-1.5865,-1.5865,-1.5866]},{"header":{"parameterUnit":"m.s-1","parameterCategory":1,"la1":30.2991,"la2":30.254,"lo1":-89.0895,"lo2":-89.0444,"dy":0.0017,"dx":0.0017,"nx":28,"ny":28,"refTime":"2025-11-05T09:00:00:Z","depth":0,"parameterNumber":3,"parameterNumberName":"V-component_of_WINDS"},"data":[0,0,0,0,0,0,0,0,0,0,0,0,0,0,0,0,0,0,0,0,0,0,0,0,0,0,0,0,0,0,0,0,0,0,0,0,0,0,0,0,0,0,0,0,0,0,0,0,0,0,0,0,0,0,0,0,0,0,-0.1607,-0.1608,0,-0.1656,-0.1657,-0.1657,-0.168,-0.168,-0.168,-0.168,-0.1733,-0.1735,-0.1736,0,0,0,0,0,0,0,0,0,0,0,0,0,-0.1536,-0.1537,-0.1607,-0.1608,-0.1608,-0.1656,-0.1657,-0.1657,-0.168,-0.168,-0.168,-0.168,-0.1733,-0.1735,-0.1736,0,0,0,0,0,0,0,0,0,0,0,0,0,-0.1574,-0.1537,-0.1607,-0.1626,-0.1628,-0.1656,-0.1657,-0.1657,-0.168,-0.168,-0.168,-0.168,-0.1732,-0.1735,-0.1737,-0.1751,0,0,-0.1743,-0.1744,0,0,0,0,0,0,0,0,-0.1572,-0.1577,-0.1622,-0.1624,-0.1627,-0.1662,-0.1651,-0.1689,-0.168,-0.1661,-0.168,-0.168,-0.171,-0.1714,-0.1723,-0.1753,-0.1756,-0.1743,-0.1745,-0.1746,-0.1746,0,0,0,0,0,0,0,-0.1569,-0.1575,-0.1627,-0.1623,-0.1626,-0.1632,-0.1637,-0.1658,-0.1685,-0.1662,-0.1664,-0.1669,-0.1711,-0.1721,-0.1725,-0.1756,-0.1743,-0.1745,-0.1747,-0.1747,-0.1799,-0.1799,0,0,0,0,0,0,-0.1563,-0.1572,-0.1625,-0.1628,-0.1598,-0.1633,-0.1639,-0.1651,-0.1685,-0.169,-0.1669,-0.167,-0.1717,-0.1722,-0.1727,-0.1744,-0.1746,-0.1748,-0.1749,-0.1798,-0.1799,-0.1799,0,0,0,0,0,0,-0.1561,-0.1568,-0.1623,-0.1601,-0.1608,-0.1635,-0.1647,-0.1652,-0.1662,-0.169,-0.1695,-0.1674,-0.1718,-0.1724,-0.1744,-0.1747,-0.1749,-0.1751,-0.1798,-0.1799,-0.1799,-0.178,0,0,0,0,0,0,-0.1559,-0.1567,-0.1572,-0.16,-0.1609,-0.1639,-0.1647,-0.1653,-0.1665,-0.1667,-0.1696,-0.1701,-0.1718,-0.1741,-0.1746,-0.175,-0.1752,-0.1798,-0.1798,-0.1799,-0.1781,-0.178,-0.1779,0,0,0,0,0,-0.1557,-0.1566,-0.1572,-0.1579,-0.1616,-0.1639,-0.1644,-0.1663,-0.1665,-0.1671,-0.1689,-0.17,-0.1745,-0.1742,-0.1749,-0.1753,-0.1798,-0.1798,-0.1799,-0.1781,-0.178,-0.1779,0,0,0,0,0,0,-0.154,-0.1571,-0.1578,-0.1597,-0.1615,-0.1643,-0.1651,-0.1661,-0.168,-0.1681,-0.1704,-0.171,-0.1728,-0.1743,-0.1739,-0.1767,-0.1773,-0.1774,-0.1757,-0.1756,-0.1755,-0.1752,-0.1754,0,0,0,0,0,-0.1538,-0.1553,-0.1579,-0.1594,-0.1602,-0.1625,-0.1636,-0.1648,-0.1668,-0.1676,-0.1696,-0.1716,-0.1734,-0.1746,-0.1765,-0.1783,-0.1789,-0.1789,-0.1788,-0.1787,-0.1788,-0.1797,-0.1797,-0.1799,-0.1799,-0.1799,0,0,-0.1535,-0.1553,-0.1562,-0.1591,-0.1606,-0.1622,-0.1631,-0.1648,-0.166,-0.1679,-0.1699,-0.1714,-0.1738,-0.1756,-0.1765,-0.1769,-0.1788,-0.1787,-0.1786,-0.1788,-0.1797,-0.1797,-0.1796,-0.1799,-0.1799,-0.1799,0,0,-0.1537,-0.1553,-0.1566,-0.158,-0.1603,-0.1618,-0.162,-0.1647,-0.1657,-0.1677,-0.1691,-0.1705,-0.1737,-0.1753,-0.1765,-0.177,-0.1781,-0.1776,-0.1771,-0.178,-0.1779,-0.1779,-0.178,-0.1781,-0.1777,-0.1777,-0.1777,0,-0.1531,-0.1554,-0.1571,-0.1586,-0.1598,-0.1614,-0.1627,-0.1641,-0.1669,-0.1677,-0.168,-0.1719,-0.1736,-0.1758,-0.1759,-0.1768,-0.1772,-0.1773,-0.1778,-0.1778,-0.1778,-0.1779,-0.178,-0.1776,-0.1776,-0.1776,-0.1776,0,-0.1544,-0.156,-0.1568,-0.1592,-0.1605,-0.1619,-0.1638,-0.1649,-0.166,-0.1674,-0.1693,-0.1714,-0.1736,-0.1742,-0.1754,-0.1765,-0.1766,-0.1773,-0.1779,-0.1777,-0.1778,-0.1779,-0.1775,-0.1775,-0.1775,-0.1775,0,0,-0.1539,-0.1571,-0.1574,-0.1584,-0.1609,-0.1622,-0.1636,-0.1656,-0.1665,-0.1683,-0.1695,-0.172,-0.1726,-0.174,-0.1753,-0.176,-0.1761,-0.1766,-0.1767,-0.1764,-0.1774,-0.1769,-0.1769,-0.1768,-0.1769,-0.1769,-0.1772,0,-0.1544,-0.1569,-0.1584,-0.1603,-0.1617,-0.1632,-0.1644,-0.1661,-0.1674,-0.1688,-0.1703,-0.172,-0.1727,-0.1735,-0.1743,-0.176,-0.1764,-0.176,-0.178,-0.1781,-0.1774,-0.177,-0.1765,-0.1767,-0.1773,-0.1773,-0.1773,0,-0.1554,-0.157,-0.159,-0.1611,-0.1618,-0.1629,-0.1647,-0.1661,-0.168,-0.1689,-0.1702,-0.1715,-0.173,-0.1734,-0.1755,-0.1751,-0.1761,-0.177,-0.177,-0.1773,-0.1777,-0.1773,-0.1769,-0.1769,-0.1775,-0.1774,-0.1774,0,-0.1547,-0.1574,-0.1589,-0.1597,-0.1623,-0.163,-0.1641,-0.166,-0.167,-0.1687,-0.1694,-0.1713,-0.1723,-0.1737,-0.1754,-0.1755,-0.1773,-0.1779,-0.1781,-0.178,-0.1785,-0.1784,-0.1782,-0.179,-0.179,-0.179,-0.179,0,-0.1552,-0.1563,-0.1585,-0.1595,-0.1607,-0.1624,-0.1637,-0.1649,-0.1665,-0.1677,-0.1692,-0.1703,-0.1724,-0.1738,-0.1751,-0.1766,-0.1771,-0.1779,-0.1782,-0.1777,-0.1776,-0.1784,-0.1784,-0.1791,-0.179,-0.179,-0.179,0,-0.1546,-0.1562,-0.1579,-0.1601,-0.1606,-0.1615,-0.1634,-0.1644,-0.1656,-0.1671,-0.1676,-0.1696,-0.1713,-0.1731,-0.1754,-0.1763,-0.1777,-0.1782,-0.177,-0.1772,-0.1773,-0.1773,-0.1776,-0.1777,-0.1785,-0.1784,-0.1784,0,-0.1548,-0.1557,-0.1579,-0.1587,-0.1598,-0.1611,-0.1621,-0.1638,-0.1648,-0.1669,-0.1675,-0.1692,-0.1707,-0.1733,-0.175,-0.1768,-0.1773,-0.1773,-0.1776,-0.177,-0.1773,-0.1772,-0.1772,-0.1772,-0.1772,-0.1772,-0.1772,0,-0.155,-0.1556,-0.157,-0.1585,-0.1596,-0.161,-0.1624,-0.163,-0.1649,-0.166,-0.1676,-0.1687,-0.1709,-0.1726,-0.1745,-0.1757,-0.1768,-0.177,-0.1772,-0.1767,-0.176,-0.1763,-0.1767,-0.177,-0.1771,-0.1771,-0.1771,-0.1771,-0.1548,-0.1555,-0.1572,-0.1586,-0.1597,-0.161,-0.1619,-0.1632,-0.1645,-0.1664,-0.1673,-0.1689,-0.1706,-0.1732,-0.1744,-0.1756,-0.176,-0.1762,-0.1763,-0.1763,-0.1761,-0.1757,-0.176,-0.176,-0.176,-0.176,-0.176,0,-0.1549,-0.156,-0.1572,-0.159,-0.1601,-0.1608,-0.1624,-0.1633,-0.1646,-0.166,-0.1674,-0.1691,-0.1707,-0.1725,-0.1742,-0.1748,-0.1753,-0.1752,-0.1752,-0.1755,-0.1758,-0.1755,-0.1748,-0.1748,-0.1748,-0.1748,-0.1748,-0.1748,-0.1551,-0.1564,-0.1572,-0.1591,-0.1602,-0.1616,-0.1624,-0.1636,-0.1647,-0.1666,-0.1678,-0.1689,-0.1705,-0.1722,-0.1737,-0.1742,-0.1747,-0.1744,-0.1751,-0.1753,-0.1755,-0.1756,-0.1753,-0.1746,-0.1746,-0.1746,-0.1746,-0.1746]}]]